Regional Weather Roundup
Issued by NWS

Home | Current Version | Previous Version | Graphics & Text | Print | Product List | Glossary Off
Versions: 1 2 3 4 5 6 7 8 9 10 11 12 13 14 15 16 17 18 19 20 21 22 23 24 25 26 27 28 29 30 31 32 33 34 35 36 37 38 39 40 41 42 43 44 45 46 47 48 49 50

000
ASUS43 KDTX 270401
RWRMI
MICHIGAN HOURLY REGIONAL WEATHER ROUNDUP
NATIONAL WEATHER SERVICE DETROIT/PONTIAC MI
1200 AM EDT MON MAR 27 2017

NOTE: "FAIR" INDICATES FEW OR NO CLOUDS BELOW 12,000 FEET WITH NO
SIGNIFICANT WEATHER AND/OR OBSTRUCTION TO VISIBILITY.

MIZ047>049-052>055-059>063-066>070-074>076-081>083-270500-
SOUTHEAST LOWER MICHIGAN

CITY           SKY/WX    TMP DP  RH WIND       PRES   REMARKS
ADRIAN         MOCLDY    49  49 100 SW6       29.89S FOG
ALMA           FOG       45  45 100 CALM      29.86S VSB 1/2
ANN ARBOR      CLOUDY    49  49 100 S6        29.87F FOG
BAD AXE        FOG       47  47 100 S5        29.87S VSB 1/2
CARO           FOG       49  49 100 S3        29.86S VSB 3/4
DETROIT CITY   FOG       47  47 100 CALM      29.88F VSB 3/4
DETROIT        CLOUDY    49  48  97 SW3       29.89F FOG
FLINT          LGT RAIN  50  49  96 S5        29.87F FOG
GROSSE ILE     FOG       43  43  99 CALM      29.88S VSB 1/2
HILLSDALE      CLOUDY    50  50 100 S5        29.87F
HOWELL         CLOUDY    50  48  93 S6        29.86F FOG

CITY           SKY/WX    TMP DP  RH WIND       PRES   REMARKS
JACKSON        CLOUDY    50  49  96 S3        29.87S FOG
LAMBERTVILLE   CLOUDY    51  50  94 CALM      29.89S FOG
LANSING        CLOUDY    52  49  89 S7        29.86S FOG
LAPEER         CLOUDY    49  48  99 CALM      29.87F FOG
MASON          CLOUDY    50  50  99 CALM      29.86F FOG
MONROE         CLOUDY    48  48 100 S7        29.88S FOG
MT. CLEMENS    CLOUDY    44  44 100 SE5       29.87S
PONTIAC        FOG       47  46  97 SE5       29.86F VSB 1/4
PORT HOPE        N/A     42  42 100 SE5       29.85S
TRI CITIES     FOG       41  41 100 CALM      29.86F VSB 3/4
MIDLAND        SNOW      43  42  97 CALM      29.85F VSB 1/2
TROY           FOG       47  46  95 CALM      29.89F VSB 1/4
SAGINAW HB     CLOUDY    45  43  93 CALM      29.85F FOG
$$
MIZ043>046-050>051-056>058-064>065-071>073-077>080-270500-
SOUTHWEST LOWER MICHIGAN

CITY           SKY/WX    TMP DP  RH WIND       PRES   REMARKS
BATTLE CREEK   CLOUDY    53  53 100 S8        29.88R FOG
BENTON HARBOR  LGT RAIN  53  50  89 SW15      29.88S FOG
BIG RAPIDS     FOG       43  42  96 CALM      29.83F VSB 1/2
COLDWATER      CLOUDY    53  53 100 SW7       29.88S
FREMONT        CLOUDY    48  48 100 CALM      29.83F FOG
HOLLAND        CLOUDY    48  46  93 W8        29.87R
GRAND RAPIDS   CLOUDY    53  53 100 SW9       29.85S FOG
IONIA          CLOUDY    50  50  99 SW3       29.84F
KALAMAZOO      CLOUDY    54  50  86 SW7       29.87S
LUDINGTON      LGT RAIN  43  43 100 SW7       29.83F VSB 1/4
MARSHALL       CLOUDY    54  53  97 SW5       29.87R
MOUNT PLEASANT FOG       42  42  97 CALM      29.84F VSB 1/2
MUSKEGON       FOG       48  47  96 SW5       29.85S VSB 1/4
SOUTH HAVEN    CLOUDY    50  49  96 SW8       29.88R
$$
MIZ016>042-270500-
NORTHERN LOWER MICHIGAN

CITY           SKY/WX    TMP DP  RH WIND       PRES   REMARKS
ALPENA         FOG       37  37 100 CALM      29.85F VSB 1/4
BEAVER ISLAND  FOG       34  34 100 CALM      29.85S VSB 1
BELLAIRE       CLOUDY    41  40  96 CALM      29.84F FOG
CADILLAC       FOG       41  40  97 CALM      29.83S VSB 1/2
CHARLEVOIX     FOG       40  40 100 CALM      29.87S VSB 3/4
FRANKFORT      FOG       46  44  91 CALM      29.83F VSB 1
GAYLORD        FOG       41  38  89 S5        29.83S VSB 1/2
GRAYLING       CLOUDY    39  39 100 CALM      29.85S FOG
HARBOR SPRINGS CLOUDY    36  36 100 NE5       29.84F FOG     WCI  32
HOUGHTON LAKE  FOG       40  40 100 CALM      29.84F VSB 1/2
MANISTEE       LGT RAIN  45  45 100 W3        29.83F VSB 3/4
OSCODA         FOG       38  38  97 W8        29.85F VSB 1/4 WCI  33
PELLSTON       CLOUDY    36  34  92 CALM      29.85F FOG
ROGERS CITY    FOG       36  35  96 CALM        N/A  VSB 1/2
TRAVERSE CITY  CLOUDY    43  42  97 CALM      29.83S FOG
$$
MIZ007>008-015-270500-
EASTERN UPPER MICHIGAN

CITY           SKY/WX    TMP DP  RH WIND       PRES   REMARKS
KINROSS        MIX PCPN  32  32 100 SE7       29.87S WCI  26
MACKINAC ISLAN MIX PCPN  33  33 100 E8        29.85S VSB 1   WCI  27
NEWBERRY       CLOUDY    32  31  96 N3        29.86F FOG
S. S. MARIE    LGT RAIN  35  33  92 E3        29.87F
MUNISING         N/A     34  33  96 CALM      29.87F
$$
MIZ004>006-011>014-085-270500-
CENTRAL UPPER MICHIGAN

CITY           SKY/WX    TMP DP  RH WIND       PRES   REMARKS
MANISTIQUE     CLOUDY    34  32  93 N5        29.86S WCI  30
ESCANABA       CLOUDY    36  35  96 N5        29.88S FOG     WCI  32
MENOMINEE        N/A    N/A N/A N/A MISG        N/A
SAWYER-GWINN   MIX PCPN  32  32 100 N6        29.86F WCI  26
$$
MIZ001>003-009>011-084-270500-
WESTERN UPPER MICHIGAN

CITY           SKY/WX    TMP DP  RH WIND       PRES   REMARKS
IRON MOUNTAIN  LGT RAIN  36  33  89 CALM      29.85F
HOUGHTON       CLOUDY    33  31  92 NW3       29.88F
COPPER HARBOR    N/A     34  33  96 NE5       29.90F WCI  30
IRONWOOD       FOG       32  31  96 NW3       29.91F VSB 1/4
$$

ABBREVIATIONS USED IN REMARKS
   TC - TEMPERATURE IN CELSIUS
  WCI - WIND CHILL INDEX
   HX - HEAT INDEX
  VSB - VISIBILITY





USA.gov is the U.S. government's official web portal to all federal, state and local government web resources and services.